PHENX84 YMMB-YWBE

Flight info

Callsign PHENX84
Flight time N/A
Altitude 1000
Route YMMB CERB BTO PTOM SNP ALOA TON YWBE
Aircraft C172/L-SFG/C

Departure

Time 2026-04-15 12:17
Airport Melbourne Moorabbin Airport (YMMB)

Arrival

Time N/A
Airport YWBE
Time Latitude Longitude Altitude Speed Heading
2026-04-15 12:12 -37.97363 145.09593 57 ft 0 kts 98°
2026-04-15 12:13 -37.97363 145.09594 54 ft 0 kts 98°
2026-04-15 12:14 -37.97357 145.09614 54 ft 7 kts 60°
2026-04-15 12:14 -37.97346 145.09685 55 ft 7 kts 82°
2026-04-15 12:15 -37.97375 145.09703 54 ft 0 kts 176°
2026-04-15 12:16 -37.97513 145.09715 52 ft 48 kts 178°
2026-04-15 12:16 -37.97988 145.09765 103 ft 80 kts 173°
2026-04-15 12:16 -37.98584 145.09863 252 ft 90 kts 172°
2026-04-15 12:16 -37.99254 145.09983 369 ft 100 kts 174°
2026-04-15 12:17 -37.99770 145.09602 648 ft 92 kts 263°
2026-04-15 12:17 -37.99687 145.08892 983 ft 79 kts 277°
2026-04-15 12:17 -37.99591 145.08210 1210 ft 79 kts 281°
2026-04-15 12:17 -37.99500 145.07536 1472 ft 77 kts 283°
2026-04-15 12:18 -37.99416 145.06863 1735 ft 77 kts 283°
2026-04-15 12:18 -37.99338 145.06191 1961 ft 77 kts 283°
2026-04-15 12:18 -37.99265 145.05530 2183 ft 75 kts 283°
2026-04-15 12:18 -37.99200 145.04875 2399 ft 75 kts 283°
2026-04-15 12:19 -37.99135 145.04226 2615 ft 74 kts 283°
2026-04-15 12:19 -37.99028 145.03498 2661 ft 96 kts 287°
2026-04-15 12:19 -37.98854 145.02612 2656 ft 109 kts 296°
2026-04-15 12:19 -37.98444 145.01779 2656 ft 113 kts 306°
2026-04-15 12:20 -37.97946 145.01024 2655 ft 111 kts 325°
2026-04-15 12:20 -37.97222 145.00790 2651 ft 112 kts 348°
2026-04-15 12:20 -37.96448 145.00646 2653 ft 112 kts 349°
2026-04-15 12:20 -37.95677 145.00510 2654 ft 112 kts 349°
2026-04-15 12:21 -37.94904 145.00374 2655 ft 113 kts 349°
2026-04-15 12:21 -37.94119 145.00242 2655 ft 114 kts 348°
2026-04-15 12:21 -37.93350 145.00020 2653 ft 113 kts 336°
2026-04-15 12:21 -37.92632 144.99616 2653 ft 113 kts 334°
2026-04-15 12:22 -37.92389 144.99477 2651 ft 113 kts 334°
2026-04-15 12:22 -37.89588 144.98435 2656 ft 117 kts 346°
2026-04-15 12:23 -37.88787 144.98264 2659 ft 117 kts 352°
2026-04-15 12:23 -37.87993 144.98085 2648 ft 116 kts 328°
2026-04-15 12:23 -37.87442 144.97346 2649 ft 116 kts 311°
2026-04-15 12:23 -37.86918 144.96581 2648 ft 114 kts 311°
2026-04-15 12:24 -37.86402 144.95822 2644 ft 113 kts 311°
2026-04-15 12:24 -37.85889 144.95065 2643 ft 113 kts 311°
2026-04-15 12:24 -37.85378 144.94310 2644 ft 113 kts 311°
2026-04-15 12:24 -37.84921 144.93509 2640 ft 114 kts 289°
2026-04-15 12:25 -37.85065 144.92520 2650 ft 118 kts 253°
2026-04-15 12:25 -37.85357 144.91548 2653 ft 118 kts 254°
2026-04-15 12:25 -37.85651 144.90579 2654 ft 118 kts 254°
2026-04-15 12:25 -37.85947 144.89602 2657 ft 120 kts 254°
2026-04-15 12:26 -37.86245 144.88614 2657 ft 120 kts 254°
2026-04-15 12:26 -37.86544 144.87625 2655 ft 120 kts 254°
2026-04-15 12:26 -37.86736 144.86620 2653 ft 116 kts 278°
2026-04-15 12:26 -37.86656 144.85615 2658 ft 115 kts 278°
2026-04-15 12:27 -37.86579 144.84609 2659 ft 115 kts 279°
2026-04-15 12:27 -37.86497 144.83591 2662 ft 118 kts 279°
2026-04-15 12:27 -37.86442 144.82907 2661 ft 119 kts 279°
2026-04-15 12:28 -37.86254 144.80504 2660 ft 117 kts 279°
2026-04-15 12:28 -37.86151 144.79473 2659 ft 116 kts 281°
2026-04-15 12:28 -37.86043 144.78461 2659 ft 116 kts 281°
2026-04-15 12:28 -37.85970 144.77790 2658 ft 116 kts 281°
2026-04-15 12:29 -37.85862 144.76784 2657 ft 115 kts 281°
2026-04-15 12:29 -37.85755 144.75782 2655 ft 115 kts 281°
2026-04-15 12:29 -37.85710 144.74453 2654 ft 112 kts 272°
2026-04-15 12:29 -37.85737 144.73493 2646 ft 107 kts 272°
2026-04-15 12:30 -37.85763 144.72583 2554 ft 99 kts 272°
2026-04-15 12:30 -37.85788 144.71660 2159 ft 106 kts 272°
2026-04-15 12:30 -37.85807 144.70730 1809 ft 106 kts 272°
2026-04-15 12:30 -37.85825 144.69790 1449 ft 108 kts 272°
2026-04-15 12:31 -37.85836 144.68830 1152 ft 107 kts 272°
2026-04-15 12:31 -37.85842 144.67036 1151 ft 100 kts 272°
2026-04-15 12:31 -37.85839 144.66164 1142 ft 96 kts 272°
2026-04-15 12:32 -37.85943 144.65340 1061 ft 101 kts 246°
2026-04-15 12:32 -37.86499 144.64775 949 ft 112 kts 195°
2026-04-15 12:32 -37.87040 144.64779 873 ft 113 kts 171°
2026-04-15 12:32 -37.87966 144.65169 942 ft 106 kts 157°
2026-04-15 12:33 -37.88631 144.65516 995 ft 102 kts 174°
2026-04-15 12:33 -37.89307 144.65268 950 ft 104 kts 219°
2026-04-15 12:33 -37.89748 144.64575 928 ft 103 kts 249°
2026-04-15 12:33 -37.89823 144.64281 898 ft 105 kts 261°
2026-04-15 12:34 -37.89880 144.62735 787 ft 111 kts 275°
2026-04-15 12:34 -37.89554 144.61954 720 ft 99 kts 322°
2026-04-15 12:34 -37.88952 144.61581 641 ft 96 kts 340°
2026-04-15 12:34 -37.88344 144.61315 658 ft 85 kts 343°
2026-04-15 12:35 -37.87952 144.61186 601 ft 87 kts 350°
2026-04-15 12:35 -37.87351 144.61211 499 ft 90 kts 21°
2026-04-15 12:35 -37.86611 144.61494 372 ft 80 kts 12°
2026-04-15 12:35 -37.86077 144.61631 209 ft 78 kts 11°
2026-04-15 12:36 -37.85732 144.61707 144 ft 71 kts
2026-04-15 12:36 -37.85313 144.61783 144 ft 16 kts
2026-04-15 12:36 -37.85295 144.61773 145 ft 4 kts 186°
2026-04-15 12:36 -37.85297 144.61773 145 ft 4 kts 186°
2026-04-15 12:37 -37.85319 144.61770 145 ft 2 kts 186°
2026-04-15 12:37 -37.85330 144.61768 144 ft 3 kts 185°
2026-04-15 12:37 -37.85380 144.61762 143 ft 10 kts 187°
2026-04-15 12:37 -37.85453 144.61755 143 ft 11 kts 184°
2026-04-15 12:38 -37.85526 144.61741 142 ft 10 kts 192°
2026-04-15 12:38 -37.85575 144.61772 140 ft 8 kts 96°
2026-04-15 12:38 -37.85578 144.61811 140 ft 5 kts 98°
2026-04-15 12:38 -37.85582 144.61831 140 ft 0 kts 102°
2026-04-15 12:40 -37.85585 144.61843 140 ft 6 kts 110°
2026-04-15 12:41 -37.85611 144.61936 144 ft 7 kts 100°
2026-04-15 12:41 -37.85621 144.62000 144 ft 9 kts 99°
2026-04-15 12:41 -37.85631 144.62092 144 ft 13 kts 97°
2026-04-15 12:41 -37.85639 144.62162 143 ft 0 kts 99°
2026-04-15 12:42 -37.85641 144.62173 143 ft 4 kts 98°
2026-04-15 12:42 -37.85625 144.62187 143 ft 3 kts
2026-04-15 12:42 -37.85620 144.62188 143 ft 0 kts